Location: Asheville, NC
(35.6000°N, 82.5500°W)
Time: 15:57:43
(UTC-04:00)

Vanguard 1 Rocket - Pass Details

Date: 12 December 2017
Orbit: 653 x 4224 km, 34.3° (Epoch: 22 June)

Event Time Altitude Azimuth Distance (km) Brightness Sun altitude
Rises 00:36:03 0° 287° (WNW) 7,300 12.0 -77.2°
Reaches altitude 10° 00:40:48 10° 281° (WNW) 6,641 11.7 -77.0°
Enters shadow 00:41:41 12° 280° (W) 6,528 11.6 -76.9°
Exits shadow 01:24:10 10° 156° (SSE) 6,685 11.7 -71.9°
Drops below altitude 10° 01:24:17 10° 156° (SSE) 6,700 11.7 -71.9°
Sets 01:29:14 0° 150° (SSE) 7,355 12.0 -71.1°
